This demonstration page uses our WeatherBlox Daily Observations layout. Learn more.

Left ArrowRight Arrow

Hourly Observations for December 11, 2019

Temp ( °F °C ) Dew Point ( °F °C ) Humidity (%) Winds ( mph kmh ) Pressure ( in mb ) Visibility ( mi km ) Precip ( " mm )
12:51 am 00:51 Clear 41 5 40 4.4 96 96 SE 6 9 30.23 1024 10 16 N/A
1:51 am 01:51 Clear 44 6.7 40 4.4 85 85 ESE 9 15 30.22 1024 10 16 N/A
2:51 am 02:51 Clear 47 8.3 40 4.4 77 77 E 10 17 30.20 1023 10 16 N/A
3:51 am 03:51 Clear 45 7.2 39 3.9 80 80 ESE 9 15 30.21 1023 10 16 N/A
4:51 am 04:51 Clear 44 6.7 39 3.9 83 83 ESE 9 15 30.20 1023 10 16 N/A
5:51 am 05:51 Clear 43 6.1 38 3.3 82 82 SE 13 20 30.22 1023 10 16 N/A
6:51 am 06:51 Clear 43 6.1 37 2.8 80 80 SE 16 26 30.24 1024 10 16 N/A
7:51 am 07:51 Sunny 45 7.2 39 3.9 80 80 E 10 17 30.24 1024 10 16 N/A
8:51 am 08:51 Sunny 45 7.2 40 4.4 83 83 SE 13 20 30.27 1025 10 16 N/A
9:51 am 09:51 Sunny 47 8.3 41 5 80 80 ESE 12 19 30.27 1025 10 16 N/A
10:51 am 10:51 Sunny 49 9.4 41 5 74 74 SE 9 15 30.26 1025 10 16 N/A
11:51 am 11:51 Sunny 53 11.7 43 6.1 69 69 SSE 12 19 30.21 1023 10 16 N/A
12:51 pm 12:51 Sunny 54 12.2 43 6.1 67 67 SSE 7 11 30.16 1021 10 16 N/A
1:51 pm 13:51 Sunny 56 13.3 43 6.1 62 62 VRB 5 7 30.13 1020 10 16 N/A
2:51 pm 14:51 Mostly Sunny 58 14.4 42 5.6 56 56 SSE 5 7 30.12 1020 10 16 N/A
3:51 pm 15:51 Sunny 58 14.4 42 5.6 56 56 SE 6 9 30.10 1019 10 16 N/A
4:51 pm 16:51 Sunny 56 13.3 43 6.1 62 62 S 6 9 30.10 1019 10 16 N/A
5:51 pm 17:51 Clear 51 10.6 43 6.1 74 74 SSE 3 6 30.12 1020 10 16 N/A
6:51 pm 18:51 Clear 48 8.9 43 6.1 83 83 E 5 7 30.14 1021 10 16 N/A
7:51 pm 19:51 Clear 46 7.8 42 5.6 86 86 SSE 3 6 30.15 1021 10 16 N/A
8:51 pm 20:51 Clear 45 7.2 41 5 86 86 SE 6 9 30.15 1021 10 16 N/A
9:51 pm 21:51 Clear 43 6.1 40 4.4 89 89 E 6 9 30.16 1021 10 16 N/A
10:51 pm 22:51 Clear 40 4.4 39 3.9 97 97 NW 5 7 30.17 1022 10 16 N/A
11:51 pm 23:51 Clear 40 4.4 39 3.9 97 97 NE 3 6 30.17 1022 10 16 N/A

Powered by AerisWeather